Weather Roundup
Issued by NWS

Home | Current Version | Previous Version | Graphics & Text | Print | Product List | Glossary Off
Versions: 1 2 3 4 5 6 7 8 9 10 11 12 13 14 15 16 17 18 19 20 21 22 23 24 25 26 27 28 29 30 31 32 33 34 35 36 37 38 39 40 41 42 43 44 45 46 47 48 49 50

509
NZUS93 KARX 240359
HRRWXR

CURRENT HOURLY OBSERVATIONS ACROSS
MUCH OF THE UPPER MISSISSIPPI VALLEY
NATIONAL WEATHER SERVICE LA CROSSE WI
1100 PM CDT SAT JUL 23 2016


...SOUTHEAST MINNESOTA...


CITY           SKY/WX    TMP DP  RH WIND       PRES   REMARKS
ROCHESTER      CLOUDY    71  70  96 S8        29.84S
ROCHESTER/MAYO CLOUDY    72  72 100 SE8       29.83S
WINONA         MOCLDY    73  70  88 CALM      29.82S
AUSTIN         CLOUDY    73  70  88 SE6       29.83S
ALBERT LEA     CLOUDY    75  73  94 SE9       29.82R
DODGE CENTER   CLOUDY    73  70  88 SE8       29.83S
PRESTON        PTCLDY    69  67  93 S7        29.85S
OWATONNA       MOCLDY    75  72  88 SE10      29.81R
FARIBAULT      CLOUDY    75  72  88 SE8       29.80S
$$

...ELSEWHERE IN MINNESOTA...


CITY           SKY/WX    TMP DP  RH WIND       PRES   REMARKS
MINNEAPOLIS    CLOUDY    75  71  87 SE3       29.79R
INTNL FALLS    CLOUDY    72  65  78 S6        29.74S
DULUTH         MOCLDY    62  59  90 SE9       29.82S
RED WING       CLOUDY    75  70  83 SE8       29.80S
REDWOOD FALLS  CLEAR     79  76  90 SE3       29.75R
MANKATO        CLEAR     75  70  83 SE10      29.78S
WORTHINGTON    CLEAR     80  77  90 SW9       29.80S
FAIRMONT       CLEAR     77  73  88 S7        29.78R
$$

...SOUTHWEST WISCONSIN...


CITY           SKY/WX    TMP DP  RH WIND       PRES   REMARKS
LA CROSSE      MOCLDY    74  69  85 S8        29.82S
PRAIRIE DU CHI CLOUDY    70  69  96 E7        29.85R
BOSCOBEL       PTCLDY    73  70  90 CALM      29.86S
LONE ROCK      NOT AVBL
PLATTEVILLE    CLOUDY    71  71 100 SE10      29.90S
FORT MC COY    CLOUDY    69  68  96 CALM      29.86R
MAUSTON-NEW LI CLOUDY    72  71  96 SE8       29.86R
VIROQUA        FAIR      70  70 100 SE12      29.87R
WIS DELLS      NOT AVBL
$$

...ELSEWHERE IN WISCONSIN...


CITY           SKY/WX    TMP DP  RH WIND       PRES   REMARKS
MILWAUKEE      LGT RAIN  73  69  87 S15G25    29.93F
MADISON        CLOUDY    72  70  93 S12       29.89S
GREEN BAY      LGT RAIN  75  75 100 S6        29.88F
EAU CLAIRE     NOT AVBL
BLACK RVR FLS  FAIR      69  69 100 CALM      29.84S
MEDFORD        CLOUDY    67  67 100 CALM      29.87F
WAUSAU         CLOUDY    70  68  93 SE7       29.86F
WIS RAPIDS     CLOUDY    72  67  84 S7        29.87F
MARSHFIELD     MOCLDY    70  67  90 CALM      29.86S
RICE LAKE      CLOUDY    70  67  92 CALM      29.85S
$$

...NORTHEAST IOWA...


CITY           SKY/WX    TMP DP  RH WIND       PRES   REMARKS
WATERLOO       CLEAR     76  74  93 S7        29.82R
DUBUQUE        CLOUDY    72  70  93 S9        29.89F
DECORAH        MOCLDY    70  70 100 VRB6      29.84S
MASON CITY     CLOUDY    77  75  93 SE6       29.83R
CHARLES CITY   CLEAR     72  72 100 SE6       29.83S
OELWEIN        CLEAR     73  72  94 S13       29.85S
$$

...ELSEWHERE IN IOWA...


CITY           SKY/WX    TMP DP  RH WIND       PRES   REMARKS
DES MOINES     PTCLDY    82  77  84 S8        29.82S HX  90
IOWA CITY      CLEAR     78  76  93 SE8       29.88R
FORT DODGE     CLEAR     81  75  83 S10       29.81R
MARSHALLTOWN   CLEAR     81  78  91 S9        29.83R
CEDAR RAPIDS   CLEAR     77  77 100 SE6       29.87R
$$

...NORTHERN ILLINOIS...


CITY           SKY/WX    TMP DP  RH WIND       PRES   REMARKS
CHICAGO-OHARE  TSTM      71  69  93 E10       29.99F
CHICAGO-MIDWAY TSTM      72  70  93 SW5       30.00R
MOLINE         CLOUDY    77  70  79 SE12      29.91S
ROCKFORD       CLOUDY    72  70  93 E5        29.94S
PEORIA         CLOUDY    84  77  79 S8        29.94S HX  94
$$

NOTE: "FAIR" INDICATES FEW OR NO CLOUDS BELOW 12,000 FEET WITH NO
SIGNIFICANT WEATHER AND/OR OBSTRUCTIONS TO VISIBILITY. WIND
SPEEDS ARE IN MILES-PER-HOUR.




USA.gov is the U.S. government's official web portal to all federal, state and local government web resources and services.